Location: McCaslin
(41.0131°N, 80.2567°W)
Time: 15:47:13
(UTC+00:00)

Daily predictions for brighter satellites

Satellite Brightness Start Highest point End
(mag) Time Altitude Azimuth Time Altitude Azimuth Time Altitude Azimuth
Cosmos 2219 Rocket 4.0 12:03:23 10° NW 12:04:21 10° NW 12:05:20 10° NNW
Cosmos 1300 2.7 12:01:41 10° SSW 12:05:27 62° W 12:09:15 10° N
Cosmos 2228 2.9 12:01:58 10° SSW 12:06:12 75° W 12:10:28 10° N
Cosmos 1125 Rocket 3.8 12:01:50 10° NNW 12:07:10 75° ENE 12:12:28 10° SSE
USA 238 DEB 3.7 12:01:18 10° SW 12:07:51 85° NW 12:14:43 10° NE
USA 238 3.7 12:01:25 10° SW 12:07:57 86° NW 12:14:50 10° NE
Radarsat Rocket 4.5 12:02:04 10° NNE 12:09:54 77° WNW 12:16:44 10° SSW
Envisat 3.8 12:06:21 10° N 12:10:41 29° WNW 12:15:01 10° SW
FengYun 1-2 T 4.3 12:06:27 10° NNE 12:12:09 85° WNW 12:17:48 10° SSW
CZ-2C R/B 4.0 22:47:40 10° ESE 22:52:09 29° ENE 22:56:51 10° N
Cosmos 1726 Rocket 3.8 22:48:20 10° N 22:52:33 46° ENE 22:56:46 10° SSE
Cosmos 2142 Rocket 4.5 22:46:39 10° N 22:52:48 68° E 22:58:52 10° SSE
ATLAS 2AS CENTAUR R/B 4.4 22:47:30 10° W 22:54:25 32° NW 23:01:15 10° NNE
MOS 1 Rocket 4.1 22:53:13 10° NE 22:56:47 25° E 23:00:20 10° SSE
COSMOS 2455 2.9 22:53:48 10° SSW 22:59:47 74° ESE 23:05:49 10° NNE
Cosmos 1818 4.0 22:54:58 10° S 23:00:07 46° ESE 23:05:19 10° NE
Cosmos 1844 Rocket 3.2 22:56:02 10° S 23:01:17 41° ESE 23:06:33 10° NE
CZ-4C R/B 4.2 22:58:01 10° WNW 23:01:45 19° NNW 23:05:58 10° NNE
CZ-2D R/B 4.0 23:01:44 10° SE 23:05:09 31° ENE 23:08:35 10° N
ISS -3.8 23:04:50 10° SW 23:08:12 84° SE 23:11:21 12° NE
H-2A R/B 3.5 23:05:22 10° S 23:09:14 49° W 23:13:17 10° NNW
Aureole 2 Rocket 2.1 23:10:11 10° S 23:13:06 56° ESE 23:16:08 10° NNE
Meteor 2-10 Rocket 3.7 23:08:28 10° N 23:13:51 54° ENE 23:18:58 10° SSE
COSMO-SKYMED 1 2.7 23:09:36 10° NNE 23:13:53 53° E 23:18:06 10° S
CSL-04 DEB 4.4 23:10:14 10° NNE 23:14:26 80° ESE 23:18:29 10° S
CZ-4B R/B 3.8 23:10:07 10° S 23:15:35 65° WSW 23:21:11 10° NNW
TELKOM 3 4.3 23:18:34 10° W 23:20:40 30° NNW 23:22:18 15° NE
Cosmos 1777 Rocket 4.4 23:17:19 10° SSW 23:22:32 66° WNW 23:27:48 10° NNE
Cosmos 1538 Rocket 3.9 23:18:02 10° NNW 23:23:12 69° ENE 23:28:20 10° SSE
Cosmos 1689 Rocket 3.2 23:25:19 20° ENE 23:26:14 23° E 23:28:36 10° SSE
Lacrosse 5 2.3 23:23:01 10° NW 23:27:49 41° NE 23:31:50 14° ESE
Okean-O 3.2 23:24:24 10° SE 23:28:22 33° ENE 23:32:20 10° N
ATLAS 5 CENTAUR R/B 3.8 23:25:50 10° W 23:28:40 18° NW 23:31:44 10° N
Okean O Rocket 2.8 23:24:41 10° S 23:28:59 48° W 23:33:16 10° NNW
Cosmos 1455 2.6 23:27:09 10° N 23:30:46 39° ENE 23:34:22 10° SSE
Helios 1A Rocket 3.9 23:27:45 10° SE 23:31:11 26° ENE 23:34:37 10° NNE
Cosmos 1340 3.9 23:29:41 10° SE 23:32:28 20° E 23:32:34 20° E
Aureole 3 3.2 23:33:27 10° N 23:36:36 38° ENE 23:39:25 10° SSE
NOSS 2-1 (E) 4.1 23:34:07 10° S 23:36:54 23° ESE 23:37:25 22° ESE
BREEZE-M DEB (TANK) 4.2 23:34:51 10° W 23:37:20 25° SSW 23:40:48 10° SSE
Cosmos 1602 Rocket 4.2 23:34:51 10° SSE 23:38:43 33° E 23:41:52 14° NNE
Cosmos 1703 3.7 23:38:40 10° SSE 23:42:16 38° E 23:44:38 18° NNE
YAOGAN 1 2.8 23:38:40 10° SE 23:42:46 44° ENE 23:46:53 10° N
ERS-2 2.0 23:39:12 10° NNE 23:42:50 69° ESE 23:46:26 10° S
CZ-4B R/B 2.3 23:39:38 10° N 23:42:55 49° WNW 23:46:05 10° SSW
H-2A R/B 4.2 23:40:05 10° N 23:43:48 27° WNW 23:47:27 10° SW
Meteor 2-1 Rocket 4.1 23:44:07 10° N 23:49:41 72° E 23:55:10 10° SSE
